Regional Weather Roundup
Issued by NWS Little Rock, AR

Home | Current Version | Previous Version | Graphics & Text | Print | Product List | Glossary On
Versions: 1 2 3 4 5 6 7 8 9 10 11 12 13 14 15 16 17 18 19 20 21 22 23 24 25 26 27
000
ASUS44 KLZK 240905
RWRLZK

WEATHER ROUNDUP FOR ARKANSAS
NATIONAL WEATHER SERVICE LITTLE ROCK AR
400 AM CDT FRI OCT 24 2014

NOTE: "FAIR" INDICATES FEW OR NO CLOUDS BELOW 12,000 FEET WITH NO
SIGNIFICANT WEATHER AND/OR OBSTRUCTIONS TO VISIBILITY.

ARZ001-003-010-029-241000-
NORTHWEST ARKANSAS

CITY           SKY/WX    TMP DP  RH WIND       PRES   REMARKS
FAYETTEVILLE   CLEAR     47  47 100 CALM      30.13F
FORT SMITH     CLEAR     54  52  93 NE3       30.13F
HARRISON       CLEAR     49  48  97 CALM      30.13F FOG
BENTONVILLE    CLEAR     50  46  87 CALM      30.13S
ROGERS         CLEAR     50  49  96 CALM      30.14S
SILOAM SPGS    CLEAR     48  45  87 CALM      30.14S
HIGHFILL       CLEAR     49  48  97 CALM      30.12F
$$

ARZ004-005-016-241000-
NORTH CENTRAL ARKANSAS

CITY           SKY/WX    TMP DP  RH WIND       PRES   REMARKS
BATESVILLE     CLEAR     46  45  93 CALM      30.13F
FLIPPIN        CLEAR     48  43  81 CALM      30.13S
MTN HOME       CLEAR     49  48  97 CALM      30.11F
$$

ARZ040-041-241000-
WEST CENTRAL ARKANSAS

CITY           SKY/WX    TMP DP  RH WIND       PRES   REMARKS
MENA           CLEAR     50  50 100 CALM      30.15S
MOUNT IDA      CLEAR     48  46  93 CALM      30.12F
$$

ARZ009-017-025-026-028-241000-
NORTHEAST ARKANSAS

CITY           SKY/WX    TMP DP  RH WIND       PRES   REMARKS
CORNING        PTSUNNY   46  46 100 CALM      30.14S FOG
JONESBORO      CLEAR     47  45  93 CALM      30.13F
NEWPORT        FOG       46  46 100 CALM      30.15S VSB 3/4
WALNUT RIDGE   CLEAR     45  43  93 CALM      30.14S
BLYTHEVILLE    CLEAR     45  43  93 CALM      30.14F
$$

ARZ022-023-033-042-044-241000-
CENTRAL ARKANSAS

CITY           SKY/WX    TMP DP  RH WIND       PRES   REMARKS
LITTLE ROCK    PTCLDY    50  47  89 CALM      30.16S
N LITTLE ROCK    N/A     51  49  94 SW3       30.16S
JACKSONVILLE   CLEAR     45  45  97 CALM      30.15S
SEARCY         CLEAR     45  45 100 CALM      30.16F FOG
HOT SPRINGS    CLEAR     49  46  90 CALM      30.15F
RUSSELLVILLE   CLEAR     47  45  93 CALM      30.14F
$$

ARZ036-241000-
EAST ARKANSAS

CITY           SKY/WX    TMP DP  RH WIND       PRES   REMARKS
WEST MEMPHIS   CLEAR     42  42 100 CALM      30.13F FOG
$$

ARZ050-053-066-070-073-241000-
SOUTHWEST ARKANSAS

CITY           SKY/WX    TMP DP  RH WIND       PRES   REMARKS
ARKADELPHIA    FAIR      49  49 100 CALM      30.16S FOG
CAMDEN         CLEAR     45  41  87 CALM      30.15F FOG
TEXARKANA      CLEAR     50  49  96 CALM      30.15R
EL DORADO      CLEAR     45  43  93 CALM      30.15S
DE QUEEN       FOG       50  50 100 CALM      30.13S VSB 1/2
$$

ARZ056-057-069-241000-
SOUTHEAST ARKANSAS

CITY           SKY/WX    TMP DP  RH WIND       PRES   REMARKS
PINE BLUFF     CLEAR     46  44  93 CALM      30.15S
STUTTGART      CLEAR     48  46  93 CALM      30.15S
MONTICELLO     CLEAR     45  43  93 CALM      30.14F

$$





USA.gov is the U.S. government's official web portal to all federal, state and local government web resources and services.